When you browse on this site, cookies collect data to enhance your experience and personalize the content and advertising you see.
Visit our Privacy Policy to learn more. By continuing to use the site, you agree to this use of cookies and data.
  • In Schweiz
  • Länderverzeichnis
  • Für 7 Tage
  • Wassertemperatur
  • Wetterkarte
  • Widgets
  • user-avatar
    Anmelden

    Stündliche Wetter Genf

    Heute, 20 Februar, Donnerstag

    Zeit Temperatur Niederschläge Wind Luftdruck Luftfeuchtigkeit
    00:00 +3°C° 0 mm 1 m/S 732 mmHg 90%
    01:00 +3°C° 0 mm 1 m/S 732 mmHg 88%
    02:00 +3°C° 0 mm 1 m/S 732 mmHg 87%
    03:00 +3°C° 0 mm 1 m/S 731 mmHg 85%
    04:00 +3°C° 0 mm 1 m/S 731 mmHg 84%
    05:00 +3°C° 0 mm 1 m/S 731 mmHg 83%
    06:00 +3°C° 0 mm 1 m/S 731 mmHg 82%
    07:00 +5°C° 0 mm 1 m/S 731 mmHg 80%
    08:00 +6°C° 0 mm 1 m/S 731 mmHg 78%
    09:00 +7°C° 0 mm 1 m/S 731 mmHg 76%
    10:00 +9°C° 0 mm 1 m/S 730 mmHg 73%
    11:00 +10°C° 0 mm 1 m/S 730 mmHg 71%
    12:00 +10°C° 0 mm 2 m/S 730 mmHg 68%
    13:00 +10°C° 0 mm 2 m/S 729 mmHg 70%
    14:00 +10°C° 0 mm 2 m/S 729 mmHg 71%
    15:00 +11°C° 0 mm 3 m/S 729 mmHg 73%
    16:00 +9°C° 0 mm 2 m/S 729 mmHg 75%
    17:00 +7°C° 0 mm 2 m/S 729 mmHg 77%
    18:00 +6°C° 0 mm 2 m/S 730 mmHg 78%
    19:00 +6°C° 0 mm 2 m/S 730 mmHg 78%
    20:00 +5°C° 0 mm 2 m/S 731 mmHg 77%
    21:00 +5°C° 0 mm 2 m/S 731 mmHg 76%
    22:00 +6°C° 0.2 mm 1 m/S 732 mmHg 78%
    23:00 +7°C° 0.2 mm 1 m/S 732 mmHg 81%

    Morgen, 21 Februar, Freitag

    Zeit Temperatur Niederschläge Wind Luftdruck Luftfeuchtigkeit
    00:00 +7°C° 0.2 mm 1 m/S 733 mmHg 83%
    01:00 +7°C° 0.2 mm 1 m/S 733 mmHg 87%
    02:00 +7°C° 0.2 mm 1 m/S 733 mmHg 90%
    03:00 +7°C° 0.2 mm 1 m/S 733 mmHg 93%
    04:00 +7°C° 0 mm 1 m/S 734 mmHg 93%
    05:00 +6°C° 0 mm 1 m/S 734 mmHg 94%
    06:00 +6°C° 0 mm 1 m/S 735 mmHg 94%
    13:00 +10°C° 0 mm 1 m/S 734 mmHg 76%
    14:00 +10°C° 0 mm 1 m/S 734 mmHg 75%
    15:00 +9°C° 0 mm 2 m/S 734 mmHg 75%
    16:00 +8°C° 0 mm 1 m/S 734 mmHg 79%
    17:00 +7°C° 0 mm 1 m/S 734 mmHg 83%
    18:00 +6°C° 0 mm 1 m/S 734 mmHg 87%
    19:00 +5°C° 0 mm 1 m/S 735 mmHg 87%
    20:00 +5°C° 0 mm 1 m/S 735 mmHg 86%
    21:00 +5°C° 0 mm 1 m/S 735 mmHg 86%
    22:00 +5°C° 0 mm 1 m/S 735 mmHg 85%
    23:00 +5°C° 0 mm 1 m/S 735 mmHg 84%

    übermorgen, 22 Februar, Samstag

    Zeit Temperatur Niederschläge Wind Luftdruck Luftfeuchtigkeit
    00:00 +5°C° 0 mm 1 m/S 736 mmHg 83%
    01:00 +3°C° 0 mm 0 m/S 735 mmHg 83%
    02:00 +3°C° 0 mm 0 m/S 735 mmHg 82%
    03:00 +3°C° 0 mm 0 m/S 735 mmHg 81%
    04:00 +3°C° 0 mm 0 m/S 735 mmHg 80%
    05:00 +3°C° 0 mm 0 m/S 735 mmHg 78%
    06:00 +3°C° 0 mm 0 m/S 735 mmHg 77%
    07:00 +4°C° 0 mm 0 m/S 735 mmHg 74%
    08:00 +6°C° 0 mm 0 m/S 735 mmHg 72%
    09:00 +7°C° 0 mm 0 m/S 736 mmHg 69%
    10:00 +9°C° 0 mm 0 m/S 736 mmHg 65%
    11:00 +12°C° 0 mm 1 m/S 736 mmHg 62%
    12:00 +13°C° 0 mm 1 m/S 736 mmHg 58%
    13:00 +13°C° 0 mm 1 m/S 735 mmHg 60%
    14:00 +14°C° 0 mm 1 m/S 735 mmHg 62%
    15:00 +14°C° 0 mm 1 m/S 735 mmHg 64%
    16:00 +12°C° 0 mm 1 m/S 735 mmHg 69%
    17:00 +10°C° 0 mm 1 m/S 735 mmHg 73%
    18:00 +9°C° 0 mm 1 m/S 736 mmHg 78%
    19:00 +9°C° 0 mm 1 m/S 736 mmHg 75%
    20:00 +8°C° 0 mm 1 m/S 736 mmHg 72%
    21:00 +8°C° 0 mm 1 m/S 737 mmHg 70%
    22:00 +8°C° 0 mm 1 m/S 737 mmHg 67%
    23:00 +8°C° 0 mm 1 m/S 737 mmHg 65%

    23 Februar, Sonntag

    Zeit Temperatur Niederschläge Wind Luftdruck Luftfeuchtigkeit
    00:00 +7°C° 0 mm 1 m/S 737 mmHg 63%
    01:00 +7°C° 0 mm 1 m/S 736 mmHg 62%
    02:00 +7°C° 0 mm 1 m/S 736 mmHg 62%
    03:00 +7°C° 0 mm 1 m/S 736 mmHg 61%
    04:00 +7°C° 0 mm 1 m/S 735 mmHg 61%
    05:00 +7°C° 0 mm 1 m/S 735 mmHg 60%
    06:00 +7°C° 0 mm 1 m/S 735 mmHg 60%
    07:00 +8°C° 0 mm 1 m/S 735 mmHg 60%
    08:00 +10°C° 0 mm 1 m/S 735 mmHg 59%
    09:00 +12°C° 0 mm 1 m/S 735 mmHg 59%
    10:00 +13°C° 0 mm 1 m/S 735 mmHg 56%
    11:00 +15°C° 0 mm 1 m/S 735 mmHg 53%
    12:00 +16°C° 0 mm 1 m/S 734 mmHg 51%
    13:00 +16°C° 0 mm 2 m/S 734 mmHg 53%
    14:00 +16°C° 0 mm 2 m/S 734 mmHg 54%
    15:00 +16°C° 0 mm 2 m/S 733 mmHg 56%
    16:00 +14°C° 0 mm 2 m/S 733 mmHg 58%
    17:00 +12°C° 0 mm 1 m/S 734 mmHg 61%
    18:00 +11°C° 0 mm 1 m/S 734 mmHg 63%
    19:00 +11°C° 0 mm 1 m/S 734 mmHg 62%
    20:00 +11°C° 0 mm 1 m/S 735 mmHg 60%
    21:00 +11°C° 0 mm 1 m/S 735 mmHg 58%
    22:00 +10°C° 0 mm 1 m/S 735 mmHg 60%
    23:00 +10°C° 0 mm 1 m/S 735 mmHg 62%

    24 Februar, Montag

    Zeit Temperatur Niederschläge Wind Luftdruck Luftfeuchtigkeit
    00:00 +10°C° 0 mm 1 m/S 735 mmHg 63%
    01:00 +10°C° 0 mm 1 m/S 735 mmHg 67%
    02:00 +10°C° 0 mm 1 m/S 735 mmHg 70%
    03:00 +9°C° 0 mm 0 m/S 735 mmHg 73%
    04:00 +9°C° 0 mm 0 m/S 734 mmHg 76%
    05:00 +9°C° 0 mm 1 m/S 734 mmHg 79%
    06:00 +9°C° 0 mm 1 m/S 734 mmHg 81%
    07:00 +10°C° 0 mm 1 m/S 734 mmHg 80%
    08:00 +11°C° 0 mm 1 m/S 734 mmHg 79%
    09:00 +12°C° 0 mm 1 m/S 734 mmHg 78%
    10:00 +13°C° 0 mm 1 m/S 734 mmHg 75%
    11:00 +15°C° 0 mm 1 m/S 734 mmHg 71%
    12:00 +16°C° 0 mm 1 m/S 733 mmHg 68%
    13:00 +16°C° 0 mm 1 m/S 733 mmHg 68%
    14:00 +15°C° 0 mm 1 m/S 732 mmHg 69%
    15:00 +15°C° 0 mm 1 m/S 732 mmHg 69%
    16:00 +14°C° 0 mm 1 m/S 732 mmHg 75%
    17:00 +12°C° 0 mm 1 m/S 731 mmHg 81%
    18:00 +11°C° 0 mm 1 m/S 731 mmHg 87%
    19:00 +10°C° 0 mm 1 m/S 731 mmHg 87%
    20:00 +10°C° 0 mm 1 m/S 731 mmHg 87%
    21:00 +9°C° 0 mm 0 m/S 731 mmHg 87%
    22:00 +10°C° 0 mm 1 m/S 731 mmHg 88%
    23:00 +9°C° 0 mm 1 m/S 731 mmHg 88%

    25 Februar, Dienstag

    Zeit Temperatur Niederschläge Wind Luftdruck Luftfeuchtigkeit
    00:00 +9°C° 0 mm 1 m/S 730 mmHg 88%
    01:00 +9°C° 0 mm 1 m/S 730 mmHg 89%
    02:00 +9°C° 0 mm 1 m/S 730 mmHg 90%
    03:00 +8°C° 0 mm 1 m/S 729 mmHg 91%
    04:00 +8°C° 0 mm 1 m/S 729 mmHg 90%
    05:00 +8°C° 0 mm 1 m/S 729 mmHg 90%
    06:00 +7°C° 0 mm 2 m/S 728 mmHg 90%
    07:00 +9°C° 0 mm 2 m/S 728 mmHg 86%
    08:00 +10°C° 0 mm 2 m/S 728 mmHg 82%
    09:00 +12°C° 0 mm 2 m/S 728 mmHg 79%
    10:00 +14°C° 0 mm 2 m/S 728 mmHg 75%
    11:00 +14°C° 0 mm 3 m/S 727 mmHg 72%
    12:00 +16°C° 0 mm 3 m/S 727 mmHg 68%
    13:00 +16°C° 0 mm 3 m/S 726 mmHg 69%
    14:00 +14°C° 0 mm 3 m/S 726 mmHg 70%
    15:00 +14°C° 0 mm 3 m/S 725 mmHg 71%
    16:00 +14°C° 0 mm 2 m/S 725 mmHg 77%
    17:00 +13°C° 0 mm 2 m/S 725 mmHg 83%
    18:00 +10°C° 0 mm 2 m/S 725 mmHg 89%
    19:00 +10°C° 0.2 mm 2 m/S 725 mmHg 89%
    20:00 +10°C° 0.2 mm 2 m/S 725 mmHg 89%
    21:00 +9°C° 0.2 mm 2 m/S 725 mmHg 89%
    22:00 +9°C° 0.2 mm 2 m/S 725 mmHg 89%
    23:00 +9°C° 0.2 mm 2 m/S 724 mmHg 89%
    Mehr zeigen